owner,sensor,date,latitude,longitude,vertical_datum,sea_water_temperature,qcFlag 
Scripps,ioos:station:wmo:42099:1,2017-11-24T19:30:00Z,27.3400,-84.2750,0.0,24.75,2 
Scripps,ioos:station:wmo:42099:1,2017-11-24T20:30:00Z,27.3400,-84.2750,0.0,24.8,2 
Scripps,ioos:station:wmo:42099:1,2017-11-24T21:30:00Z,27.3400,-84.2750,0.0,24.75,2 
Scripps,ioos:station:wmo:42099:1,2017-11-24T22:30:00Z,27.3400,-84.2750,0.0,24.7,2 
Scripps,ioos:station:wmo:42099:1,2017-11-24T23:30:00Z,27.3400,-84.2750,0.0,24.7,2 
Scripps,ioos:station:wmo:42099:1,2017-11-25T00:30:00Z,27.3400,-84.2750,0.0,24.75,2 
Scripps,ioos:station:wmo:42099:1,2017-11-25T01:00:00Z,27.3400,-84.2750,0.0,24.75,2 
Scripps,ioos:station:wmo:42099:1,2017-11-25T02:30:00Z,27.3400,-84.2750,0.0,24.8,2 
Scripps,ioos:station:wmo:42099:1,2017-11-25T03:30:00Z,27.3400,-84.2750,0.0,25.0,2 
Scripps,ioos:station:wmo:42099:1,2017-11-25T04:30:00Z,27.3400,-84.2750,0.0,25.0,2 
Scripps,ioos:station:wmo:42099:1,2017-11-25T05:30:00Z,27.3400,-84.2750,0.0,25.05,2 
Scripps,ioos:station:wmo:42099:1,2017-11-25T06:30:00Z,27.3400,-84.2750,0.0,25.1,2 
Scripps,ioos:station:wmo:42099:1,2017-11-25T07:30:00Z,27.3400,-84.2750,0.0,25.05,2 
Scripps,ioos:station:wmo:42099:1,2017-11-25T08:30:00Z,27.3400,-84.2750,0.0,25.0,2 
Scripps,ioos:station:wmo:42099:1,2017-11-25T09:30:00Z,27.3400,-84.2750,0.0,24.95,2 
Scripps,ioos:station:wmo:42099:1,2017-11-25T10:30:00Z,27.3400,-84.2750,0.0,24.85,2 
Scripps,ioos:station:wmo:42099:1,2017-11-25T11:30:00Z,27.3400,-84.2750,0.0,24.85,2 
Scripps,ioos:station:wmo:42099:1,2017-11-25T12:30:00Z,27.3400,-84.2750,0.0,25.0,2 
Scripps,ioos:station:wmo:42099:1,2017-11-25T13:30:00Z,27.3400,-84.2750,0.0,25.1,2 
Scripps,ioos:station:wmo:42099:1,2017-11-25T14:30:00Z,27.3400,-84.2750,0.0,25.1,2 
Scripps,ioos:station:wmo:42099:1,2017-11-25T15:30:00Z,27.3400,-84.2750,0.0,25.15,2 
Scripps,ioos:station:wmo:42099:1,2017-11-25T16:30:00Z,27.3400,-84.2750,0.0,25.15,2 
Scripps,ioos:station:wmo:42099:1,2017-11-25T17:30:00Z,27.3400,-84.2750,0.0,25.2,2 
Scripps,ioos:station:wmo:42099:1,2017-11-25T18:30:00Z,27.3400,-84.2750,0.0,25.2,2 
Scripps,ioos:station:wmo:42099:1,2017-11-25T19:30:00Z,27.3400,-84.2750,0.0,25.2,2 
Scripps,ioos:station:wmo:42099:1,2017-11-25T20:30:00Z,27.3400,-84.2750,0.0,25.25,2 
Scripps,ioos:station:wmo:42099:1,2017-11-25T21:30:00Z,27.3400,-84.2750,0.0,25.2,2 
Scripps,ioos:station:wmo:42099:1,2017-11-25T22:30:00Z,27.3400,-84.2750,0.0,25.15,2 
Scripps,ioos:station:wmo:42099:1,2017-11-25T23:30:00Z,27.3400,-84.2750,0.0,25.15,2 
Scripps,ioos:station:wmo:42099:1,2017-11-26T00:30:00Z,27.3400,-84.2750,0.0,25.1,2 
Scripps,ioos:station:wmo:42099:1,2017-11-26T01:30:00Z,27.3400,-84.2750,0.0,25.05,2 
Scripps,ioos:station:wmo:42099:1,2017-11-26T02:30:00Z,27.3400,-84.2750,0.0,25.05,2 
Scripps,ioos:station:wmo:42099:1,2017-11-26T03:30:00Z,27.3400,-84.2750,0.0,25.05,2 
Scripps,ioos:station:wmo:42099:1,2017-11-26T04:30:00Z,27.3400,-84.2750,0.0,25.05,2 
Scripps,ioos:station:wmo:42099:1,2017-11-26T05:30:00Z,27.3400,-84.2750,0.0,24.95,2 
Scripps,ioos:station:wmo:42099:1,2017-11-26T06:30:00Z,27.3400,-84.2750,0.0,24.95,2 
Scripps,ioos:station:wmo:42099:1,2017-11-26T07:30:00Z,27.3400,-84.2750,0.0,24.95,2 
Scripps,ioos:station:wmo:42099:1,2017-11-26T08:30:00Z,27.3400,-84.2750,0.0,24.85,2 
Scripps,ioos:station:wmo:42099:1,2017-11-26T09:30:00Z,27.3400,-84.2750,0.0,24.8,2 
Scripps,ioos:station:wmo:42099:1,2017-11-26T10:30:00Z,27.3400,-84.2750,0.0,24.8,2 
Scripps,ioos:station:wmo:42099:1,2017-11-26T11:30:00Z,27.3400,-84.2750,0.0,24.8,2 
Scripps,ioos:station:wmo:42099:1,2017-11-26T12:30:00Z,27.3400,-84.2750,0.0,24.8,2 
Scripps,ioos:station:wmo:42099:1,2017-11-26T13:30:00Z,27.3400,-84.2750,0.0,24.75,2 
Scripps,ioos:station:wmo:42099:1,2017-11-26T14:30:00Z,27.3400,-84.2750,0.0,24.75,2 
Scripps,ioos:station:wmo:42099:1,2017-11-26T15:30:00Z,27.3400,-84.2750,0.0,24.65,2 
Scripps,ioos:station:wmo:42099:1,2017-11-26T16:30:00Z,27.3400,-84.2750,0.0,24.65,2 
Scripps,ioos:station:wmo:42099:1,2017-11-26T17:30:00Z,27.3400,-84.2750,0.0,24.55,2 
Scripps,ioos:station:wmo:42099:1,2017-11-26T18:30:00Z,27.3400,-84.2750,0.0,24.4,2 
Scripps,ioos:station:wmo:42099:1,2017-11-26T19:30:00Z,27.3400,-84.2750,0.0,24.4,2 
Scripps,ioos:station:wmo:42099:1,2017-11-26T20:30:00Z,27.3400,-84.2750,0.0,24.4,2 
Scripps,ioos:station:wmo:42099:1,2017-11-26T21:30:00Z,27.3400,-84.2750,0.0,24.35,2 
Scripps,ioos:station:wmo:42099:1,2017-11-26T22:30:00Z,27.3400,-84.2750,0.0,24.3,2 
Scripps,ioos:station:wmo:42099:1,2017-11-26T23:30:00Z,27.3400,-84.2750,0.0,24.3,2 
Scripps,ioos:station:wmo:42099:1,2017-11-27T00:30:00Z,27.3400,-84.2750,0.0,24.25,2 
Scripps,ioos:station:wmo:42099:1,2017-11-27T01:30:00Z,27.3400,-84.2750,0.0,24.3,2 
Scripps,ioos:station:wmo:42099:1,2017-11-27T02:30:00Z,27.3400,-84.2750,0.0,24.3,2 
Scripps,ioos:station:wmo:42099:1,2017-11-27T03:30:00Z,27.3400,-84.2750,0.0,24.35,2 
Scripps,ioos:station:wmo:42099:1,2017-11-27T04:30:00Z,27.3400,-84.2750,0.0,24.35,2 
Scripps,ioos:station:wmo:42099:1,2017-11-27T05:30:00Z,27.3400,-84.2750,0.0,24.35,2 
Scripps,ioos:station:wmo:42099:1,2017-11-27T06:30:00Z,27.3400,-84.2750,0.0,24.3,2 
Scripps,ioos:station:wmo:42099:1,2017-11-27T07:00:00Z,27.3400,-84.2750,0.0,24.35,2 
Scripps,ioos:station:wmo:42099:1,2017-11-27T08:30:00Z,27.3400,-84.2750,0.0,24.2,2 
Scripps,ioos:station:wmo:42099:1,2017-11-27T09:30:00Z,27.3400,-84.2750,0.0,24.25,2 
Scripps,ioos:station:wmo:42099:1,2017-11-27T10:30:00Z,27.3400,-84.2750,0.0,24.25,2 
Scripps,ioos:station:wmo:42099:1,2017-11-27T11:30:00Z,27.3400,-84.2750,0.0,24.25,2 
Scripps,ioos:station:wmo:42099:1,2017-11-27T12:30:00Z,27.3400,-84.2750,0.0,24.2,2 
Scripps,ioos:station:wmo:42099:1,2017-11-27T13:30:00Z,27.3400,-84.2750,0.0,24.2,2 
Scripps,ioos:station:wmo:42099:1,2017-11-27T14:30:00Z,27.3400,-84.2750,0.0,24.2,2 
Scripps,ioos:station:wmo:42099:1,2017-11-27T15:30:00Z,27.3400,-84.2750,0.0,24.2,2 
Scripps,ioos:station:wmo:42099:1,2017-11-27T16:30:00Z,27.3400,-84.2750,0.0,24.2,2 
Scripps,ioos:station:wmo:42099:1,2017-11-27T17:30:00Z,27.3400,-84.2750,0.0,24.3,2 
Scripps,ioos:station:wmo:42099:1,2017-11-27T18:30:00Z,27.3400,-84.2750,0.0,24.35,2 
Scripps,ioos:station:wmo:42099:1,2017-11-27T19:30:00Z,27.3400,-84.2750,0.0,24.3,2 
Scripps,ioos:station:wmo:42099:1,2017-11-27T20:30:00Z,27.3400,-84.2750,0.0,24.35,2 
Scripps,ioos:station:wmo:42099:1,2017-11-27T21:30:00Z,27.3400,-84.2750,0.0,24.35,2 
Scripps,ioos:station:wmo:42099:1,2017-11-27T22:30:00Z,27.3400,-84.2750,0.0,24.35,2 
Scripps,ioos:station:wmo:42099:1,2017-11-27T23:30:00Z,27.3400,-84.2750,0.0,24.35,2 
Scripps,ioos:station:wmo:42099:1,2017-11-28T00:30:00Z,27.3400,-84.2750,0.0,24.35,2 
Scripps,ioos:station:wmo:42099:1,2017-11-28T01:30:00Z,27.3400,-84.2750,0.0,24.35,2 
Scripps,ioos:station:wmo:42099:1,2017-11-28T02:30:00Z,27.3400,-84.2750,0.0,24.3,2 
Scripps,ioos:station:wmo:42099:1,2017-11-28T03:30:00Z,27.3400,-84.2750,0.0,24.3,2 
Scripps,ioos:station:wmo:42099:1,2017-11-28T04:30:00Z,27.3400,-84.2750,0.0,24.3,2 
Scripps,ioos:station:wmo:42099:1,2017-11-28T05:30:00Z,27.3400,-84.2750,0.0,24.3,2 
Scripps,ioos:station:wmo:42099:1,2017-11-28T06:30:00Z,27.3400,-84.2750,0.0,24.3,2 
Scripps,ioos:station:wmo:42099:1,2017-11-28T07:30:00Z,27.3400,-84.2750,0.0,24.3,2 
Scripps,ioos:station:wmo:42099:1,2017-11-28T08:30:00Z,27.3400,-84.2750,0.0,24.3,2 
Scripps,ioos:station:wmo:42099:1,2017-11-28T09:30:00Z,27.3400,-84.2750,0.0,24.3,2 
Scripps,ioos:station:wmo:42099:1,2017-11-28T10:30:00Z,27.3400,-84.2750,0.0,24.3,2 
Scripps,ioos:station:wmo:42099:1,2017-11-28T11:30:00Z,27.3400,-84.2750,0.0,24.3,2 
Scripps,ioos:station:wmo:42099:1,2017-11-28T12:30:00Z,27.3400,-84.2750,0.0,24.3,2 
Scripps,ioos:station:wmo:42099:1,2017-11-28T13:30:00Z,27.3400,-84.2750,0.0,24.35,2 
Scripps,ioos:station:wmo:42099:1,2017-11-28T14:30:00Z,27.3400,-84.2750,0.0,24.45,2 
Scripps,ioos:station:wmo:42099:1,2017-11-28T15:30:00Z,27.3400,-84.2750,0.0,24.45,2 
Scripps,ioos:station:wmo:42099:1,2017-11-28T16:30:00Z,27.3400,-84.2750,0.0,24.7,2 
Scripps,ioos:station:wmo:42099:1,2017-11-28T17:30:00Z,27.3400,-84.2750,0.0,24.8,2 
Scripps,ioos:station:wmo:42099:1,2017-11-28T18:30:00Z,27.3400,-84.2750,0.0,24.8,2 
Scripps,ioos:station:wmo:42099:1,2017-11-28T19:30:00Z,27.3400,-84.2750,0.0,24.85,2 
Scripps,ioos:station:wmo:42099:1,2017-11-28T20:30:00Z,27.3400,-84.2750,0.0,24.8,2 
Scripps,ioos:station:wmo:42099:1,2017-11-28T21:30:00Z,27.3400,-84.2750,0.0,24.8,2 
Scripps,ioos:station:wmo:42099:1,2017-11-28T22:30:00Z,27.3400,-84.2750,0.0,24.75,2 
Scripps,ioos:station:wmo:42099:1,2017-11-28T23:30:00Z,27.3400,-84.2750,0.0,24.65,2 
Scripps,ioos:station:wmo:42099:1,2017-11-29T00:30:00Z,27.3400,-84.2750,0.0,24.5,2 
Scripps,ioos:station:wmo:42099:1,2017-11-29T01:30:00Z,27.3400,-84.2750,0.0,24.4,2 
Scripps,ioos:station:wmo:42099:1,2017-11-29T02:30:00Z,27.3400,-84.2750,0.0,24.35,2 
Scripps,ioos:station:wmo:42099:1,2017-11-29T03:30:00Z,27.3400,-84.2750,0.0,24.35,2 
Scripps,ioos:station:wmo:42099:1,2017-11-29T04:30:00Z,27.3400,-84.2750,0.0,24.4,2 
Scripps,ioos:station:wmo:42099:1,2017-11-29T05:30:00Z,27.3400,-84.2750,0.0,24.4,2 
Scripps,ioos:station:wmo:42099:1,2017-11-29T06:30:00Z,27.3400,-84.2750,0.0,24.4,2 
Scripps,ioos:station:wmo:42099:1,2017-11-29T07:30:00Z,27.3400,-84.2750,0.0,24.35,2 
Scripps,ioos:station:wmo:42099:1,2017-11-29T08:30:00Z,27.3400,-84.2750,0.0,24.35,2 
Scripps,ioos:station:wmo:42099:1,2017-11-29T09:00:00Z,27.3400,-84.2750,0.0,24.4,2 
Scripps,ioos:station:wmo:42099:1,2017-11-29T10:30:00Z,27.3400,-84.2750,0.0,24.4,2 
Scripps,ioos:station:wmo:42099:1,2017-11-29T11:30:00Z,27.3400,-84.2750,0.0,24.45,2 
Scripps,ioos:station:wmo:42099:1,2017-11-29T12:30:00Z,27.3400,-84.2750,0.0,24.5,2 
Scripps,ioos:station:wmo:42099:1,2017-11-29T13:30:00Z,27.3400,-84.2750,0.0,24.6,2 
Scripps,ioos:station:wmo:42099:1,2017-11-29T14:30:00Z,27.3400,-84.2750,0.0,24.75,2 
Scripps,ioos:station:wmo:42099:1,2017-11-29T15:30:00Z,27.3400,-84.2750,0.0,24.7,2 
Scripps,ioos:station:wmo:42099:1,2017-11-29T16:00:00Z,27.3400,-84.2750,0.0,24.7,2 
Scripps,ioos:station:wmo:42099:1,2017-11-29T17:30:00Z,27.3400,-84.2750,0.0,24.75,2 
Scripps,ioos:station:wmo:42099:1,2017-11-29T18:30:00Z,27.3400,-84.2750,0.0,24.75,2 
Scripps,ioos:station:wmo:42099:1,2017-11-29T19:30:00Z,27.3400,-84.2750,0.0,24.8,2 
Scripps,ioos:station:wmo:42099:1,2017-11-29T20:30:00Z,27.3400,-84.2750,0.0,24.85,2 
Scripps,ioos:station:wmo:42099:1,2017-11-29T21:30:00Z,27.3400,-84.2750,0.0,24.85,2 
Scripps,ioos:station:wmo:42099:1,2017-11-29T22:30:00Z,27.3400,-84.2750,0.0,24.85,2 
Scripps,ioos:station:wmo:42099:1,2017-11-29T23:30:00Z,27.3400,-84.2750,0.0,24.85,2 
Scripps,ioos:station:wmo:42099:1,2017-11-30T00:30:00Z,27.3400,-84.2750,0.0,24.85,2 
Scripps,ioos:station:wmo:42099:1,2017-11-30T01:30:00Z,27.3400,-84.2750,0.0,24.8,2 
Scripps,ioos:station:wmo:42099:1,2017-11-30T02:30:00Z,27.3400,-84.2750,0.0,24.8,2 
Scripps,ioos:station:wmo:42099:1,2017-11-30T03:30:00Z,27.3400,-84.2750,0.0,24.55,2 
Scripps,ioos:station:wmo:42099:1,2017-11-30T04:30:00Z,27.3400,-84.2750,0.0,24.5,2 
Scripps,ioos:station:wmo:42099:1,2017-11-30T05:30:00Z,27.3400,-84.2750,0.0,24.45,2 
Scripps,ioos:station:wmo:42099:1,2017-11-30T06:30:00Z,27.3400,-84.2750,0.0,24.45,2 
Scripps,ioos:station:wmo:42099:1,2017-11-30T07:30:00Z,27.3400,-84.2750,0.0,24.45,2 
Scripps,ioos:station:wmo:42099:1,2017-11-30T08:30:00Z,27.3400,-84.2750,0.0,24.45,2 
Scripps,ioos:station:wmo:42099:1,2017-11-30T09:30:00Z,27.3400,-84.2750,0.0,24.55,2 
Scripps,ioos:station:wmo:42099:1,2017-11-30T10:30:00Z,27.3400,-84.2750,0.0,24.7,2 
Scripps,ioos:station:wmo:42099:1,2017-11-30T11:30:00Z,27.3400,-84.2750,0.0,24.6,2 
Scripps,ioos:station:wmo:42099:1,2017-11-30T12:30:00Z,27.3400,-84.2750,0.0,24.55,2 
Scripps,ioos:station:wmo:42099:1,2017-11-30T13:30:00Z,27.3400,-84.2750,0.0,24.55,2 
Scripps,ioos:station:wmo:42099:1,2017-11-30T14:30:00Z,27.3400,-84.2750,0.0,24.55,2 
Scripps,ioos:station:wmo:42099:1,2017-11-30T15:30:00Z,27.3400,-84.2750,0.0,24.55,2 
Scripps,ioos:station:wmo:42099:1,2017-11-30T16:30:00Z,27.3400,-84.2750,0.0,24.65,2 
Scripps,ioos:station:wmo:42099:1,2017-11-30T17:30:00Z,27.3400,-84.2750,0.0,24.85,2 
Scripps,ioos:station:wmo:42099:1,2017-11-30T18:30:00Z,27.3400,-84.2750,0.0,24.85,2 
Scripps,ioos:station:wmo:42099:1,2017-11-30T19:30:00Z,27.3400,-84.2750,0.0,24.9,2 
Scripps,ioos:station:wmo:42099:1,2017-11-30T20:30:00Z,27.3400,-84.2750,0.0,24.9,2 
Scripps,ioos:station:wmo:42099:1,2017-11-30T21:30:00Z,27.3400,-84.2750,0.0,24.8,2 
Scripps,ioos:station:wmo:42099:1,2017-11-30T22:30:00Z,27.3400,-84.2750,0.0,24.8,2 
Scripps,ioos:station:wmo:42099:1,2017-11-30T23:30:00Z,27.3400,-84.2750,0.0,24.7,2 
 
DISCLAIMER: The Gulf of Mexico Coastal and Ocean Observing (GCOOS) Data Portal aggregates data from the regional data providers for the convenience of all data users. Data published on this website should not be used for navigation or certain other uses as we cannot guarantee data accuracy or availability. The data and delivery services are provided 'as is' without warranty of any kind. Data Source: Gulf of Mexico Coastal Ocean Observing System Data Portal (http://data.gcoos.org/) 
